Weather in Jamaica

United States     40°42′14″N   73°48′51″W
temp.,
°C
wind,
m/s
gust,
m/s
humid.,
%
clouds,
%
prec.,
mm/h
press.,
hPa
HPBL,
m
24 may, tue
tue2423:00+20nne2343100 0.0 1022354
02:00+19nne3347100 0.0 1023392
05:00+17se2361100 0.0 1024391
08:00+17ene4662100 0.0 1025770
11:00+20ene4445100 0.0 10261357
14:00+20ese5541100 0.0 10251443
17:00+19se5538100 0.0 10261068
20:00+17se4546100 0.0 1026518
25 may, wed
wed2523:00+15ese345314 0.0 1027491
02:00+14e3461100 0.0 1027427
05:00+14e3567100 0.0 1027360
08:00+15ene3454100 0.0 1029549
11:00+19ese443934 0.0 1028982
14:00+21se553664 0.0 1028950
17:00+19sse554078 0.0 1028784
20:00+16se465199 0.0 1028568
26 may, thu
thu2623:00+15se355884 0.0 1028456
02:00+14sse356998 0.0 1027447
05:00+14se3678100 0.0 1027396
08:00+17sse47679 0.0 1027702
11:00+18sse575992 0.0 1027887
14:00+18sse586599 0.0 1025736
17:00+19s586598 0.0 1024705
20:00+18sse5107694 0.0 1022509
27 may, fri
fri2723:00+18s41183100 0.0 1021496
02:00+18s51287100 0.1 1020502
05:00+18s51392100 0.1 1018473
08:00+19s51389100 0.1 1017555
11:00+21s71281100 0.1 1016551
14:00+23s81272100 0.1 1015475
17:00+21s71281100 1.1 1014411
20:00+19s51095100 8.5 1014329
28 may, sat
sat2823:00+18s4797100 2.8 1013231
02:00+18s4997100 2.6 1013240
05:00+18sse369899 0.2 1011156
08:00+18sse4797100 0.2 1012274
11:00+19ssw4791100 0.0 1013268
14:00+22s4672100 0.1 1012487
17:00+21s4679100 0.8 1011321
20:00+20s4985100 0.8 1011259